Home   Weather   Grimstad   Past weeks

Flag for Norway Past Weather in Grimstad, Norway — Yesterday and Last 2 Weeks

Now
39 °F

Chilly.


Feels Like: 31 °F
Forecast: 36 / 43 °F
Wind: 15 mph from Southwest

Location: Torungen Fyr

Current Time: Feb 25, 2017 at 7:13:56 pm

Latest Report: Feb 25, 2017 at 6:00 pm


Visibility: N/A

Pressure: 29.41 "Hg

Humidity: 97%

Dew Point: 38 °F

Location of GrimstadLocation

Past Weather in Grimstad — Graph

°F

Grimstad Temperature Yesterday

Maximum temperature yesterday: 41 °F (at 3:00 pm)
Minimum temperature yesterday: 27 °F (at 8:00 am)
Average temperature yesterday: 33 °F

High & Low Weather Summary for the Past Weeks

 TemperatureHumidityPressure
High49 °F (Feb 21, 2:00 pm)100% (Feb 17, 5:00 pm)30.81 "Hg (Feb 17, 5:00 pm)
Low20 °F (Feb 13, 6:00 am)32% (Feb 24, 1:00 pm)28.73 "Hg (Feb 22, 6:00 pm)
Average34 °F84%29.95 "Hg
* Reported Feb 10 5:00 pm — Feb 25 5:00 pm, Grimstad, Weather by CustomWeather, © 2017

Note: Actual official high and low records may vary slightly from our data, if they occured in-between our weather recording intervals... More about our weather records

Advertising

Grimstad Weather History for the Previous 24 Hours

Scroll right to see more
 ConditionsComfort  
Time TempWeatherWind HumidityBarometerVisibility
5:00 pm
Sat, Feb 25
38 °FChilly.16 mph96%29.47 "HgN/A
4:00 pm38 °FChilly.15 mph95%29.53 "HgN/A
3:00 pm37 °FChilly.15 mph95%29.58 "HgN/A
2:00 pm37 °FChilly.16 mph94%29.63 "HgN/A
1:00 pm36 °FChilly.15 mph92%29.69 "HgN/A
12:00 pm36 °FChilly.12 mph91%29.75 "HgN/A
11:00 am30 °FChilly.3 mph71%29.78 "HgN/A
10:00 am29 °FChilly.3 mph73%29.81 "HgN/A
9:00 am27 °FChilly.2 mph73%29.83 "HgN/A
8:00 am27 °FChilly.2 mph72%29.85 "HgN/A
7:00 am26 °FChilly.3 mph73%29.87 "HgN/A
6:00 am26 °FChilly.3 mph74%29.88 "HgN/A
5:00 am28 °FChilly.2 mph74%29.87 "HgN/A
4:00 am28 °FChilly.3 mph61%29.87 "HgN/A
3:00 am28 °FChilly.2 mph58%29.87 "HgN/A
2:00 am29 °FChilly.3 mph59%29.86 "HgN/A
1:00 am30 °FChilly.3 mph55%29.85 "HgN/A
12:00 am30 °FChilly.6 mph58%29.83 "HgN/A
11:00 pm
Fri, Feb 24
31 °FChilly.6 mph55%29.82 "HgN/A
10:00 pm32 °FChilly.5 mph51%29.80 "HgN/A
9:00 pm33 °FChilly.3 mph45%29.79 "HgN/A
8:00 pm34 °FChilly.10 mph45%29.75 "HgN/A
7:00 pm35 °FChilly.8 mph45%29.74 "HgN/A
Weather by CustomWeather, © 2017

See weather overviewHow to use our weather pages